Regional Weather Roundup
Issued by NWS Cleveland, OH

Home | Current Version | Previous Version | Graphics & Text | Print | Product List | Glossary On
Versions: 1 2 3 4 5 6 7 8 9 10 11 12 13 14 15 16 17 18 19 20 21 22 23 24 25 26 27 28 29 30 31 32 33 34 35 36 37 38 39 40 41 42 43 44 45 46 47 48 49 50
007
ASUS41 KCLE 280702
RWRCLE
OHIO REGIONAL WEATHER ROUNDUP
NATIONAL WEATHER SERVICE CLEVELAND, OH
300 AM EDT SAT MAY 28 2016

NOTE: "FAIR" INDICATES FEW OR NO CLOUDS BELOW 12,000 FEET WITH NO
SIGNIFICANT WEATHER AND/OR OBSTRUCTIONS TO VISIBILITY.

OHZ001>008-015>018-024>027-034-035-043-044-280800-
   NORTHWEST OHIO

CITY           SKY/WX    TMP DP  RH WIND       PRES   REMARKS
DEFIANCE       CLEAR     74  61  63 S6        29.98F
FINDLAY        CLEAR     69  59  70 S8        30.00F
TOLEDO EXPRESS CLEAR     72  60  66 S5        29.98F
TOLEDO EXEC    CLEAR     74  60  61 S9        30.00S
LIMA           CLEAR     69  61  75 SE6       30.01F
$$

OHZ009>014-019>023-028>033-038-089-280800-
   NORTHEAST OHIO

CITY           SKY/WX    TMP DP  RH WIND       PRES   REMARKS
CLE-HOPKINS    PTCLDY    76  62  62 S10       30.05S
CLE-LAKEFRONT  PTCLDY    78  64  61 S13       30.01S
CUY CO. ARPT   NOT AVBL
LORAIN-ELYRIA  CLEAR     70  62  76 S7        30.03S
ASHTABULA      CLEAR     67  64  90 SE5       30.06R
AKRON-CANTON   CLOUDY    71  64  78 SW3       30.06S
WOOSTER        PTCLDY    69  63  81 CALM      30.06S
MANSFIELD      CLEAR     68  63  84 SW7       30.06S
YOUNGSTOWN     MOCLDY    72  63  73 S5        30.07S
$$

OHZ042-051>053-060>062-070>072-077>081-280800-
  SOUTHWEST OHIO

CITY           SKY/WX    TMP DP  RH WIND       PRES   REMARKS
CINC-COVINGTON MOCLDY    72  65  78 S9        30.01F
CINC-LUNKEN    MOCLDY    66  66 100 CALM      30.01F
HAMILTON       PTCLDY    73  66  78 CALM      30.01F
DAYTON         CLOUDY    68  63  84 SE7       30.02F
WRIGHT-PAT AFB PTCLDY    69  65  85 SE1       30.01F
DAYTON GENERAL CLOUDY    71  63  75 S6        30.01F
WILMINGTON     MOCLDY    70  64  81 S5        30.03F
$$

OHZ036-037-039>041-045>050-054>059-063>069-073>076-082>088-280800-
  CENTRAL AND SOUTHEAST OHIO

CITY           SKY/WX    TMP DP  RH WIND       PRES   REMARKS
COLUMBUS       MOCLDY    69  64  84 CALM      30.03S
OSU AIRPORT    CLOUDY    68  63  84 SE6       30.03F
BOLTON FIELD   NOT AVBL
RICKENBACK AFB NOT AVBL
NEWARK         PTCLDY    67  63  87 CALM      30.04F
MARION         CLEAR     68  62  81 S8        30.04F
LANCASTER      CLOUDY    67  64  90 CALM      30.04F
ZANESVILLE     PTCLDY    70  65  84 E3        30.05F
NEW PHILLY     CLOUDY    69  64  84 SE3       30.06S
$$




USA.gov is the U.S. government's official web portal to all federal, state and local government web resources and services.